Tiempo cada hora Aalsmeer

Hoy, 27 Octubre, Martes

Tiempo Temperatura Precipitaciones Viento Presión Humedad
00:00 +9°C° 0.3 mm 5 mps 750 mmHg 84%
01:00 +8°C° 0.2 mm 5 mps 750 mmHg 85%
02:00 +8°C° 0.2 mm 5 mps 750 mmHg 86%
03:00 +8°C° 0.2 mm 5 mps 750 mmHg 87%
04:00 +7°C° 0.2 mm 5 mps 750 mmHg 88%
05:00 +7°C° 0.2 mm 5 mps 751 mmHg 89%
06:00 +7°C° 0.2 mm 5 mps 751 mmHg 90%
07:00 +8°C° 0.2 mm 6 mps 751 mmHg 88%
08:00 +8°C° 0.2 mm 6 mps 751 mmHg 87%
09:00 +9°C° 0.2 mm 7 mps 751 mmHg 85%
10:00 +10°C° 0.3 mm 7 mps 751 mmHg 80%
11:00 +10°C° 0.3 mm 7 mps 751 mmHg 76%
12:00 +11°C° 0.3 mm 8 mps 751 mmHg 72%
13:00 +11°C° 0.2 mm 8 mps 751 mmHg 73%
14:00 +11°C° 0.2 mm 7 mps 751 mmHg 73%
15:00 +10°C° 0.2 mm 7 mps 750 mmHg 74%
16:00 +10°C° 0.2 mm 8 mps 750 mmHg 77%
17:00 +9°C° 0.2 mm 8 mps 749 mmHg 81%
18:00 +8°C° 0.2 mm 9 mps 749 mmHg 84%
19:00 +8°C° 0.5 mm 9 mps 749 mmHg 85%
20:00 +10°C° 0.5 mm 9 mps 748 mmHg 86%
21:00 +10°C° 0.5 mm 9 mps 748 mmHg 88%
22:00 +11°C° 0.5 mm 8 mps 749 mmHg 86%
23:00 +11°C° 0.5 mm 7 mps 749 mmHg 85%

Mañana, 28 Octubre, Miércoles

Tiempo Temperatura Precipitaciones Viento Presión Humedad
00:00 +11°C° 0.5 mm 6 mps 750 mmHg 83%
01:00 +10°C° 0.1 mm 5 mps 750 mmHg 80%
02:00 +10°C° 0.1 mm 5 mps 751 mmHg 77%
03:00 +9°C° 0.1 mm 5 mps 751 mmHg 74%
04:00 +9°C° 0 mm 5 mps 752 mmHg 76%
05:00 +9°C° 0 mm 5 mps 752 mmHg 77%
06:00 +8°C° 0 mm 6 mps 753 mmHg 79%
07:00 +9°C° 0.2 mm 7 mps 753 mmHg 79%
08:00 +9°C° 0.2 mm 7 mps 754 mmHg 79%
09:00 +10°C° 0.2 mm 8 mps 754 mmHg 78%
10:00 +10°C° 0.5 mm 9 mps 754 mmHg 78%
11:00 +10°C° 0.5 mm 9 mps 754 mmHg 78%
12:00 +10°C° 0.5 mm 9 mps 754 mmHg 78%
13:00 +10°C° 0.9 mm 9 mps 754 mmHg 80%
14:00 +10°C° 0.9 mm 8 mps 754 mmHg 82%
15:00 +10°C° 0.9 mm 8 mps 754 mmHg 84%
16:00 +10°C° 1.3 mm 8 mps 754 mmHg 85%
17:00 +10°C° 1.3 mm 8 mps 754 mmHg 85%
18:00 +9°C° 1.3 mm 7 mps 753 mmHg 85%
19:00 +9°C° 1.4 mm 7 mps 754 mmHg 84%
20:00 +9°C° 1.4 mm 7 mps 754 mmHg 82%
21:00 +9°C° 1.4 mm 7 mps 754 mmHg 81%
22:00 +9°C° 0.5 mm 7 mps 754 mmHg 80%
23:00 +9°C° 0.5 mm 7 mps 755 mmHg 79%

Pasado mañana, 29 Octubre, Jueves

Tiempo Temperatura Precipitaciones Viento Presión Humedad
00:00 +8°C° 0.5 mm 7 mps 755 mmHg 77%
01:00 +8°C° 0.1 mm 7 mps 756 mmHg 77%
02:00 +8°C° 0.1 mm 7 mps 756 mmHg 76%
03:00 +8°C° 0.1 mm 6 mps 757 mmHg 75%
04:00 +8°C° 0.1 mm 6 mps 758 mmHg 75%
05:00 +8°C° 0.1 mm 6 mps 758 mmHg 75%
06:00 +8°C° 0.1 mm 6 mps 759 mmHg 76%
07:00 +8°C° 0 mm 6 mps 760 mmHg 73%
08:00 +9°C° 0 mm 6 mps 760 mmHg 71%
09:00 +9°C° 0 mm 6 mps 761 mmHg 69%
10:00 +10°C° 0 mm 6 mps 761 mmHg 67%
11:00 +10°C° 0 mm 6 mps 762 mmHg 64%
12:00 +11°C° 0 mm 7 mps 763 mmHg 62%
13:00 +11°C° 0 mm 6 mps 763 mmHg 64%
14:00 +12°C° 0 mm 5 mps 763 mmHg 66%
15:00 +10°C° 0 mm 5 mps 764 mmHg 68%
16:00 +10°C° 0.1 mm 5 mps 764 mmHg 72%
17:00 +10°C° 0.1 mm 5 mps 764 mmHg 76%
18:00 +11°C° 0.1 mm 4 mps 764 mmHg 80%
19:00 +10°C° 0.3 mm 5 mps 764 mmHg 83%
20:00 +10°C° 0.3 mm 5 mps 764 mmHg 85%
21:00 +10°C° 0.3 mm 6 mps 764 mmHg 88%
22:00 +10°C° 0.4 mm 6 mps 764 mmHg 88%
23:00 +11°C° 0.4 mm 7 mps 764 mmHg 88%

30 Octubre, Viernes

Tiempo Temperatura Precipitaciones Viento Presión Humedad
00:00 +11°C° 0.4 mm 7 mps 764 mmHg 88%
01:00 +11°C° 0.1 mm 7 mps 763 mmHg 88%
02:00 +11°C° 0.1 mm 7 mps 763 mmHg 87%
03:00 +11°C° 0.1 mm 7 mps 763 mmHg 87%
04:00 +12°C° 0.1 mm 7 mps 763 mmHg 87%
05:00 +12°C° 0.1 mm 7 mps 763 mmHg 87%
06:00 +12°C° 0.1 mm 7 mps 763 mmHg 87%
07:00 +12°C° 0 mm 8 mps 764 mmHg 86%
08:00 +12°C° 0 mm 8 mps 764 mmHg 85%
09:00 +12°C° 0 mm 8 mps 764 mmHg 84%
10:00 +13°C° 0 mm 8 mps 764 mmHg 84%
11:00 +13°C° 0 mm 8 mps 764 mmHg 84%
12:00 +13°C° 0 mm 8 mps 764 mmHg 84%
13:00 +13°C° 0.2 mm 8 mps 765 mmHg 85%
14:00 +14°C° 0.2 mm 7 mps 765 mmHg 86%
15:00 +14°C° 0.2 mm 7 mps 765 mmHg 88%
16:00 +14°C° 0.1 mm 7 mps 765 mmHg 87%
17:00 +14°C° 0.1 mm 7 mps 766 mmHg 87%
18:00 +14°C° 0.1 mm 7 mps 766 mmHg 87%
19:00 +14°C° 0 mm 6 mps 766 mmHg 87%
20:00 +14°C° 0 mm 6 mps 766 mmHg 87%
21:00 +14°C° 0 mm 6 mps 767 mmHg 87%
22:00 +14°C° 0 mm 6 mps 767 mmHg 87%
23:00 +13°C° 0 mm 5 mps 767 mmHg 87%

31 Octubre, Sábado

Tiempo Temperatura Precipitaciones Viento Presión Humedad
00:00 +13°C° 0 mm 5 mps 767 mmHg 87%
01:00 +13°C° 0 mm 5 mps 766 mmHg 87%
02:00 +13°C° 0 mm 5 mps 766 mmHg 86%
03:00 +13°C° 0 mm 4 mps 766 mmHg 85%
04:00 +12°C° 0 mm 4 mps 766 mmHg 85%
05:00 +12°C° 0 mm 4 mps 766 mmHg 85%
06:00 +12°C° 0 mm 4 mps 766 mmHg 85%
07:00 +12°C° 0 mm 4 mps 766 mmHg 84%
08:00 +12°C° 0 mm 5 mps 765 mmHg 82%
09:00 +12°C° 0 mm 5 mps 765 mmHg 80%
10:00 +13°C° 0 mm 5 mps 765 mmHg 78%
11:00 +14°C° 0 mm 5 mps 764 mmHg 75%
12:00 +15°C° 0 mm 6 mps 764 mmHg 73%
13:00 +15°C° 0 mm 6 mps 763 mmHg 74%
14:00 +15°C° 0 mm 5 mps 762 mmHg 74%
15:00 +15°C° 0 mm 5 mps 762 mmHg 75%
16:00 +14°C° 0 mm 6 mps 761 mmHg 77%
17:00 +13°C° 0 mm 6 mps 761 mmHg 78%
18:00 +13°C° 0 mm 6 mps 761 mmHg 80%
19:00 +13°C° 0 mm 6 mps 760 mmHg 79%
20:00 +12°C° 0 mm 7 mps 760 mmHg 78%
21:00 +12°C° 0 mm 7 mps 760 mmHg 76%
22:00 +12°C° 0 mm 7 mps 760 mmHg 79%
23:00 +12°C° 0 mm 7 mps 761 mmHg 81%

1 Noviembre, Domingo

Tiempo Temperatura Precipitaciones Viento Presión Humedad
00:00 +13°C° 0 mm 6 mps 761 mmHg 84%
01:00 +13°C° 0 mm 6 mps 761 mmHg 83%
02:00 +11°C° 0 mm 6 mps 761 mmHg 83%
03:00 +12°C° 0 mm 5 mps 761 mmHg 83%
04:00 +12°C° 0 mm 5 mps 761 mmHg 85%
05:00 +12°C° 0 mm 5 mps 761 mmHg 87%
06:00 +10°C° 0 mm 5 mps 761 mmHg 90%
07:00 +11°C° 0 mm 6 mps 761 mmHg 88%
08:00 +11°C° 0 mm 6 mps 761 mmHg 86%
09:00 +11°C° 0 mm 7 mps 761 mmHg 84%
10:00 +11°C° 0 mm 7 mps 761 mmHg 84%
11:00 +11°C° 0 mm 7 mps 761 mmHg 85%
12:00 +11°C° 0 mm 7 mps 761 mmHg 85%
13:00 +11°C° 0 mm 7 mps 760 mmHg 84%
14:00 +11°C° 0 mm 7 mps 760 mmHg 83%
15:00 +11°C° 0 mm 7 mps 760 mmHg 82%
16:00 +12°C° 0 mm 8 mps 760 mmHg 81%
17:00 +12°C° 0 mm 8 mps 760 mmHg 80%
18:00 +12°C° 0 mm 8 mps 760 mmHg 79%
19:00 +13°C° 0 mm 8 mps 760 mmHg 80%
20:00 +13°C° 0 mm 8 mps 759 mmHg 82%
21:00 +15°C° 0 mm 8 mps 759 mmHg 83%
22:00 +15°C° 0 mm 8 mps 759 mmHg 83%
23:00 +15°C° 0 mm 8 mps 759 mmHg 83%
Mostrar más

Necesitamos Su Consentimiento

Meteoprog y nuestros Proveedores de Servicios pueden almacenar y acceder a sus datos personales como cookies, identificadores de dispositivo u otras tecnologías similares de su dispositivo y procesar dichos datos para personalizar contenido y anuncios, además de ofrecer funciones de redes sociales y analizar el tráfico.

  • Almacenar y/o acceder a información en su dispositivo

    Se puede almacenar o acceder a cookies, identificadores de dispositivo u otra información de su dispositivo para los fines anteriormente indicados.

  • Anuncios y contenido personalizados, medición de anuncios y contenido, percepciones del público, y desarrollo de productos

    Los anuncios y el contenido pueden personalizarse en base a su perfil. Se pueden añadir más datos para personalizar mejor los anuncios y contenidos. Se puede medir el rendimiento de los anuncios y contenidos. Se puede obtener la percepción sobre el público que ha visto los anuncios y contenidos. Dichos datos pueden usarse para desarrollar o mejorar la experiencia del usuario, sistemas y software.

Al hacer clic en ‘Estoy De Acuerdo’ usted permitirá el uso de las cookies, identificadores de dispositivo, balizas web u otras tecnologías similares indicadas. Su configuración puede cambiarse desde el navegador de su dispositivo.

Para ciertos fines, los intereses legítimos pueden ser considerados por encima del consentimiento. Puede leer más sobre ello en nuestra Política de Privacidad y Cookies.